Regional Weather Roundup
Issued by NWS

Home | Current Version | Previous Version | Graphics & Text | Print | Product List | Glossary On
Versions: 1 2 3 4 5 6 7 8 9 10 11 12 13 14 15 16 17 18 19 20 21 22 23 24 25 26 27 28 29 30 31 32 33 34 35 36 37 38 39 40 41 42 43 44 45 46 47 48 49 50
000
ASUS43 KMPX 230910
RWRMN
WEATHER ROUNDUP FOR MINNESOTA
NATIONAL WEATHER SERVICE TWIN CITIES/CHANHASSEN MN
400 AM CDT MON APR 23 2018


NOTE: "FAIR" INDICATES FEW OR NO CLOUDS BELOW 12,000 FEET WITH NO
SIGNIFICANT WEATHER AND/OR OBSTRUCTIONS TO VISIBILITY. N/A MEANS
CURRENT SKY AND/OR WEATHER CONDITIONS ARE NOT AVAILABLE.

MNZ060>063-068>070-231000-
   Twin Cities Metro

CITY           SKY/WX    TMP DP  RH WIND       PRES   REMARKS
TWIN CITIES    FAIR      42  36  79 CALM      30.24S
ST PAUL        FAIR      38  35  89 CALM      30.25S
BLAINE         FAIR      37  34  87 CALM      30.24S
LAKEVILLE      FAIR      36  34  93 CALM      30.24R
EDEN PRAIRIE   FAIR      40  34  79 E3        30.23S
SOUTH ST PAUL  FAIR      39  33  80 CALM      30.24S
LAKE ELMO      FAIR      34  32  93 CALM      30.26R
$$
MNZ001>005-007-008-013>017-022>024-027-028-231000-
   Northwest Minnesota

CITY           SKY/WX    TMP DP  RH WIND       PRES   REMARKS
BEMIDJI        MOCLDY    44  32  61 SW6       30.16S
HALLOCK        FAIR      39  37  93 S5        30.11R
ROSEAU         FAIR      46  39  76 SW12      30.09S
WARROAD        FAIR      46  39  76 SW9       30.10S
THIEF RVR FALL MOCLDY    46  39  76 SW12      30.13S
CROOKSTON      FAIR      45  39  81 S12       30.14S
FOSSTON        CLOUDY    43  34  70 S10       30.16S
DETROIT LAKES  FAIR      41  34  75 CALM      30.19S
MOORHEAD       MOCLDY    39  36  87 S13       30.18S
PARK RAPIDS    FAIR      39  33  79 CALM      30.18S
MAHNOMEN       FAIR      42  35  75 S14       30.16S
$$
MNZ006-009>011-018-025>026-231000-
   North Central Minnesota

CITY           SKY/WX    TMP DP  RH WIND       PRES   REMARKS
BAUDETTE       CLOUDY    49  37  63 SW10      30.10F
FLAG ISLAND    FAIR      43  36  75 SW15      30.06S
INTL FALLS     MOCLDY    45  35  68 SW6       30.12F
WASKISH        CLOUDY    43  34  70 SW3       30.14S
BIG FORK       FAIR      39  34  81 S5        30.16F
LONGVILLE      FAIR      41  36  81 SW3       30.19S
GRAND RAPIDS   FAIR      39  33  79 S5        30.21S
CRANE LAKE     MOCLDY    39  32  75 S5        30.17S
ORR            FAIR      45  30  57 S3        30.14S
COOK           FAIR      45  34  65 CALM      30.18R
WALKER         FAIR      44  34  68 SW6       30.18S
$$
MNZ012-019>021-037-231000-
   Northeast Minnesota

CITY           SKY/WX    TMP DP  RH WIND       PRES   REMARKS
DULUTH         FAIR      41  28  60 SW3       30.20F
ELY            FAIR      39  28  65 CALM      30.18S
HIBBING        FAIR      26  24  92 CALM      30.19S
EVELETH        FAIR      30  26  84 CALM      30.21R
DULUTH HARBOR  FAIR      34  28  80 CALM      30.23S
TWO HARBORS    FAIR      32  27  80 CALM      30.20S
SILVER BAY     FAIR      28  27  93 CALM      30.19S
GRAND MARAIS     N/A     31  25  78 CALM      30.21R
G MARAIS ARPRT FAIR      34  21  60 SW3       30.19S
$$
MNZ029>031-032-039>041-046>048-054>057-064-231000-
   West Central Minnesota

CITY           SKY/WX    TMP DP  RH WIND       PRES   REMARKS
FERGUS FALLS   FAIR      37  34  87 SE8       30.19S
WHEATON        CLEAR     39  36  87 S7        30.22S
MORRIS         CLEAR     37  36  93 S6        30.20S
ALEXANDRIA     FAIR      43  33  68 SW8       30.22R
ELBOW LAKE     FAIR      35  32  90 S7        30.21S WCI  29
WADENA         FAIR      36  34  93 S3        30.20S
GLENWOOD       FAIR      39  36  87 CALM      30.22S
APPLETON       CLEAR     37  34  87 CALM      30.21S
BENSON         CLEAR     32  30  93 CALM      30.23S FOG
ORTONVILLE     CLEAR     36  32  87 SE3       30.20S
MADISON        CLEAR     39  37  93 CALM      30.21S
WILLMAR        FAIR      34  34 100 CALM      30.25R
$$
MNZ033>034-036-042>043-049>051-058-059-231000-
   Central Minnesota

CITY           SKY/WX    TMP DP  RH WIND       PRES   REMARKS
ST CLOUD       FAIR      34  33  96 CALM      30.22S
SAUK CENTRE    FAIR      32  31  94 CALM      30.22F
PAYNESVILLE    FAIR      33  34 100 CALM      30.22F
AITKIN         FAIR      28  27  93 CALM      30.20S
PINE RIVER     FAIR      28  27  93 CALM      30.23S
BRAINERD       FAIR      31  26  82 S3        30.22R
STAPLES        FAIR      34  32  93 CALM      30.21R
LONG PRAIRIE   FAIR      32  32 100 SE3       30.22S FOG
LITTLE FALLS   FAIR      32  30  93 CALM      30.23S FOG
LITCHFIELD       N/A     37  37 100 CALM      30.22S FOG
BUFFALO        FAIR      35  32  89 CALM      30.24S
MAPLE LAKE     FAIR      33  32  98 CALM      30.23S
HUTCHINSON     FAIR      35  35 100 CALM      30.24S FOG
$$
MNZ037-044-045-052-053-231000-
   East Central Minnesota

CITY           SKY/WX    TMP DP  RH WIND       PRES   REMARKS
PRINCETON      FAIR      32  30  93 CALM      30.23S
MORA           FAIR      30  28  93 CALM      30.24S
CAMBRIDGE      FAIR      36  27  69 CALM      30.23S
RUSH CITY      FAIR      33  30  90 CALM      30.23S
MOOSE LAKE     FAIR      30  27  86 CALM      30.21S
HINCKLEY       FAIR      30  30 100 CALM      30.23S
CLOQUET        FAIR      36  27  69 CALM      30.21S
MCGREGOR       FAIR      32  28  86 CALM      30.22S
$$
MNZ071>073-080-081-089-090-097-098-231000-
   Southwest Minnesota

CITY           SKY/WX    TMP DP  RH WIND       PRES   REMARKS
MONTEVIDEO     CLEAR     36  32  87 CALM      30.22S
GRANITE FALLS  CLEAR     40  38  91 CALM      30.23S
CANBY          CLEAR     39  34  82 S5        30.21F
REDWOOD FALLS  CLEAR     38  37  97 CALM      30.22S
OLIVIA         CLEAR     36  36 100 CALM      30.21S
PIPESTONE      CLEAR    N/A N/A N/A SE7       30.20S
WINDOM         CLEAR     37  21  52 CALM      30.22S
WORTHINGTON    PTCLDY    36  34  92 CALM      30.22S
JACKSON        CLEAR     37  34  87 CALM      30.23S
TRACY          CLEAR     42  35  76 CALM      30.21S
SLAYTON        CLEAR     37  33  86 CALM      30.22S
$$
MNZ065>067-074>077-082>085-091>093-231000-
   South Central Minnesota

CITY           SKY/WX    TMP DP  RH WIND       PRES   REMARKS
MANKATO        FAIR      42  36  79 E6        30.23S
NEW ULM        CLEAR     37  36  93 CALM      30.23S FOG
ST JAMES       CLEAR     36  34  93 CALM      30.24S
FAIRMONT       CLEAR     36  33  89 CALM      30.23S
GLENCOE        FAIR      38  38 100 CALM      30.22S
OWATONNA       FAIR      34  32  93 CALM      30.24S
WASECA         FAIR      36  34  93 E3        30.25R
ALBERT LEA     FAIR      39  30  70 CALM      30.24R
$$
MNZ078>079-086>088-094>096-231000-
   Southeast Minnesota

CITY           SKY/WX    TMP DP  RH WIND       PRES   REMARKS
ROCHESTER      FAIR      39  30  70 SE8       30.25R
RED WING       FAIR      32  27  80 CALM      30.25R
STANTON        FAIR      32  31  94 SW3       30.23S
DODGE CENTER   FAIR      37  30  75 SE6       30.25R
WINONA         FAIR      34  32  93 NW3       30.24S
AUSTIN         FAIR      39  30  70 E3        30.24S
PRESTON        FAIR      41  28  57 CALM      30.26R
$$
ABBREVIATIONS USED IN REMARKS
   TC - TEMPERATURES IN CELSIUS
  WCI - WIND CHILL INDEX
   HX - HEAT INDEX
  VSB - VISIBILITY
$$




USA.gov is the U.S. government's official web portal to all federal, state and local government web resources and services.